Time,TemperatureF,DewpointF,PressureIn,WindDirection,WindDirectionDegrees,WindSpeedMPH,WindSpeedGustMPH,Humidity,HourlyPrecipIn,Conditions,Clouds,dailyrainin,SoftwareType,DateUTC
2013-01-08 00:04:00,67.0,-99.9,30.13,NE,48,6.0,9.0,-999,-99.99,,,-99.99,,2013-01-08 05:04:00,
2013-01-08 00:12:00,67.0,-99.9,30.13,NE,44,8.0,9.0,-999,-99.99,,,-99.99,,2013-01-08 05:12:00,
2013-01-08 00:22:00,67.0,-99.9,30.13,NE,38,7.0,9.0,-999,-99.99,,,-99.99,,2013-01-08 05:22:00,
2013-01-08 00:33:00,67.0,-99.9,30.12,NE,39,7.0,10.0,-999,-99.99,,,-99.99,,2013-01-08 05:33:00,
2013-01-08 00:43:00,66.0,-99.9,30.12,NE,45,8.0,9.0,-999,-99.99,,,-99.99,,2013-01-08 05:43:00,
2013-01-08 00:53:00,66.0,-99.9,30.12,NE,44,7.0,9.0,-999,-99.99,,,-99.99,,2013-01-08 05:53:00,
2013-01-08 01:03:00,66.0,-99.9,30.12,NE,41,6.0,9.0,-999,-99.99,,,-99.99,,2013-01-08 06:03:00,
2013-01-08 01:12:00,66.0,-99.9,30.11,NE,38,7.0,9.0,-999,-99.99,,,-99.99,,2013-01-08 06:12:00,
2013-01-08 01:23:00,66.0,-99.9,30.11,NE,38,6.0,8.0,-999,-99.99,,,-99.99,,2013-01-08 06:23:00,
2013-01-08 01:33:00,66.0,-99.9,30.11,NE,34,6.0,7.0,-999,-99.99,,,-99.99,,2013-01-08 06:33:00,
2013-01-08 01:43:00,66.0,-99.9,30.11,NE,36,7.0,9.0,-999,-99.99,,,-99.99,,2013-01-08 06:43:00,
2013-01-08 01:53:00,65.0,-99.9,30.11,NE,35,7.0,9.0,-999,-99.99,,,-99.99,,2013-01-08 06:53:00,
2013-01-08 02:02:00,66.0,-99.9,30.11,NE,35,7.0,8.0,-999,-99.99,,,-99.99,,2013-01-08 07:02:00,
2013-01-08 02:12:00,65.0,-99.9,30.11,NNE,33,7.0,9.0,-999,-99.99,,,-99.99,,2013-01-08 07:12:00,
2013-01-08 02:22:00,65.0,-99.9,30.11,NNE,28,6.0,8.0,-999,-99.99,,,-99.99,,2013-01-08 07:22:00,
2013-01-08 02:32:00,65.0,-99.9,30.11,NE,40,7.0,9.0,-999,-99.99,,,-99.99,,2013-01-08 07:32:00,
2013-01-08 02:42:00,65.0,-99.9,30.11,NE,46,7.0,8.0,-999,-99.99,,,-99.99,,2013-01-08 07:42:00,
2013-01-08 02:52:00,65.0,-99.9,30.10,NE,48,7.0,9.0,-999,-99.99,,,-99.99,,2013-01-08 07:52:00,
2013-01-08 03:02:00,65.0,-99.9,30.10,NE,46,7.0,11.0,-999,-99.99,,,-99.99,,2013-01-08 08:02:00,
2013-01-08 03:12:00,66.0,-99.9,30.10,NE,56,5.0,8.0,-999,-99.99,,,-99.99,,2013-01-08 08:12:00,
2013-01-08 03:22:00,66.0,-99.9,30.10,NNE,32,7.0,9.0,-999,-99.99,,,-99.99,,2013-01-08 08:22:00,
2013-01-08 03:32:00,66.0,-99.9,30.10,NE,35,8.0,9.0,-999,-99.99,,,-99.99,,2013-01-08 08:32:00,
2013-01-08 03:42:00,65.0,-99.9,30.09,NE,41,8.0,9.0,-999,-99.99,,,-99.99,,2013-01-08 08:42:00,
2013-01-08 03:53:00,66.0,-99.9,30.09,NE,46,8.0,10.0,-999,-99.99,,,-99.99,,2013-01-08 08:53:00,
2013-01-08 04:02:00,66.0,-99.9,30.09,NE,39,8.0,9.0,-999,-99.99,,,-99.99,,2013-01-08 09:02:00,
2013-01-08 04:12:00,66.0,-99.9,30.10,NE,41,7.0,9.0,-999,-99.99,,,-99.99,,2013-01-08 09:12:00,
2013-01-08 04:22:00,66.0,-99.9,30.10,NE,41,7.0,9.0,-999,-99.99,,,-99.99,,2013-01-08 09:22:00,
2013-01-08 04:33:00,66.0,-99.9,30.09,NE,39,9.0,11.0,-999,-99.99,,,-99.99,,2013-01-08 09:33:00,
2013-01-08 04:42:00,66.0,-99.9,30.09,NE,47,8.0,11.0,-999,-99.99,,,-99.99,,2013-01-08 09:42:00,
2013-01-08 04:53:00,66.0,-99.9,30.09,NE,40,8.0,10.0,-999,-99.99,,,-99.99,,2013-01-08 09:53:00,
2013-01-08 05:03:00,66.0,-99.9,30.09,NE,36,9.0,10.0,-999,-99.99,,,-99.99,,2013-01-08 10:03:00,
2013-01-08 05:12:00,66.0,-99.9,30.09,NE,46,9.0,10.0,-999,-99.99,,,-99.99,,2013-01-08 10:12:00,
2013-01-08 05:22:00,66.0,-99.9,30.09,NE,39,9.0,10.0,-999,-99.99,,,-99.99,,2013-01-08 10:22:00,
2013-01-08 05:33:00,66.0,-99.9,30.10,NE,34,8.0,11.0,-999,-99.99,,,-99.99,,2013-01-08 10:33:00,
2013-01-08 05:43:00,66.0,-99.9,30.11,NNE,30,7.0,9.0,-999,-99.99,,,-99.99,,2013-01-08 10:43:00,
2013-01-08 05:53:00,66.0,-99.9,30.11,NNE,21,6.0,10.0,-999,-99.99,,,-99.99,,2013-01-08 10:53:00,
2013-01-08 06:02:00,66.0,-99.9,30.11,NNE,24,6.0,9.0,-999,-99.99,,,-99.99,,2013-01-08 11:02:00,
2013-01-08 06:12:00,66.0,-99.9,30.12,NE,43,7.0,9.0,-999,-99.99,,,-99.99,,2013-01-08 11:12:00,
2013-01-08 06:23:00,66.0,-99.9,30.12,NE,45,7.0,11.0,-999,-99.99,,,-99.99,,2013-01-08 11:23:00,
2013-01-08 06:33:00,66.0,-99.9,30.12,NE,49,7.0,9.0,-999,-99.99,,,-99.99,,2013-01-08 11:33:00,
2013-01-08 06:43:00,66.0,-99.9,30.12,NE,52,7.0,10.0,-999,-99.99,,,-99.99,,2013-01-08 11:43:00,
2013-01-08 06:53:00,66.0,-99.9,30.12,NE,48,6.0,8.0,-999,-99.99,,,-99.99,,2013-01-08 11:53:00,
2013-01-08 07:03:00,66.0,-99.9,30.12,ENE,62,6.0,9.0,-999,-99.99,,,-99.99,,2013-01-08 12:03:00,
2013-01-08 07:12:00,66.0,-99.9,30.12,ENE,66,6.0,9.0,-999,-99.99,,,-99.99,,2013-01-08 12:12:00,
2013-01-08 07:22:00,66.0,-99.9,30.13,East,83,4.0,7.0,-999,-99.99,,,-99.99,,2013-01-08 12:22:00,
2013-01-08 07:33:00,65.0,-99.9,30.13,East,86,5.0,7.0,-999,-99.99,,,-99.99,,2013-01-08 12:33:00,
2013-01-08 07:43:00,65.0,-99.9,30.14,East,83,6.0,9.0,-999,-99.99,,,-99.99,,2013-01-08 12:43:00,
2013-01-08 07:53:00,65.0,-99.9,30.14,ENE,67,5.0,9.0,-999,-99.99,,,-99.99,,2013-01-08 12:53:00,
2013-01-08 08:03:00,65.0,-99.9,30.15,NE,48,7.0,8.0,-999,-99.99,,,-99.99,,2013-01-08 13:03:00,
2013-01-08 08:13:00,66.0,-99.9,30.15,East,94,4.0,6.0,-999,-99.99,,,-99.99,,2013-01-08 13:13:00,
2013-01-08 08:22:00,66.0,-99.9,30.16,East,83,4.0,6.0,-999,-99.99,,,-99.99,,2013-01-08 13:22:00,
2013-01-08 08:33:00,66.0,-99.9,30.16,ENE,64,3.0,6.0,-999,-99.99,,,-99.99,,2013-01-08 13:33:00,
2013-01-08 08:43:00,66.0,-99.9,30.17,NNE,26,6.0,7.0,-999,-99.99,,,-99.99,,2013-01-08 13:43:00,
2013-01-08 08:53:00,66.0,-99.9,30.17,NE,41,5.0,7.0,-999,-99.99,,,-99.99,,2013-01-08 13:53:00,
2013-01-08 09:03:00,66.0,-99.9,30.18,NE,44,6.0,6.0,-999,-99.99,,,-99.99,,2013-01-08 14:03:00,
2013-01-08 09:13:00,67.0,-99.9,30.18,NE,50,4.0,7.0,-999,-99.99,,,-99.99,,2013-01-08 14:13:00,
2013-01-08 09:23:00,67.0,-99.9,30.19,NE,54,4.0,6.0,-999,-99.99,,,-99.99,,2013-01-08 14:23:00,
2013-01-08 09:33:00,67.0,-99.9,30.19,ENE,59,4.0,8.0,-999,-99.99,,,-99.99,,2013-01-08 14:33:00,
2013-01-08 09:43:00,67.0,-99.9,30.19,ENE,67,3.0,6.0,-999,-99.99,,,-99.99,,2013-01-08 14:43:00,
2013-01-08 09:53:00,68.0,-99.9,30.19,NE,56,3.0,7.0,-999,-99.99,,,-99.99,,2013-01-08 14:53:00,
2013-01-08 10:03:00,68.0,-99.9,30.19,NE,41,5.0,7.0,-999,-99.99,,,-99.99,,2013-01-08 15:03:00,
2013-01-08 10:12:00,69.0,-99.9,30.20,ENE,59,4.0,7.0,-999,-99.99,,,-99.99,,2013-01-08 15:12:00,
2013-01-08 10:23:00,69.0,-99.9,30.20,NE,52,4.0,6.0,-999,-99.99,,,-99.99,,2013-01-08 15:23:00,
2013-01-08 10:33:00,69.0,-99.9,30.20,NE,49,4.0,5.0,-999,-99.99,,,-99.99,,2013-01-08 15:33:00,
2013-01-08 10:43:00,70.0,-99.9,30.19,NE,40,3.0,7.0,-999,-99.99,,,-99.99,,2013-01-08 15:43:00,
2013-01-08 10:53:00,71.0,-99.9,30.19,NE,37,5.0,6.0,-999,-99.99,,,-99.99,,2013-01-08 15:53:00,
2013-01-08 11:03:00,72.0,-99.9,30.19,NE,53,2.0,7.0,-999,-99.99,,,-99.99,,2013-01-08 16:03:00,
2013-01-08 11:13:00,72.0,-99.9,30.19,NE,34,4.0,6.0,-999,-99.99,,,-99.99,,2013-01-08 16:13:00,
2013-01-08 11:23:00,73.0,-99.9,30.18,NNE,26,5.0,7.0,-999,-99.99,,,-99.99,,2013-01-08 16:23:00,
2013-01-08 11:34:00,74.0,-99.9,30.18,ENE,74,2.0,5.0,-999,-99.99,,,-99.99,,2013-01-08 16:34:00,
2013-01-08 11:43:00,78.0,-99.9,30.17,East,100,4.0,9.0,-999,-99.99,,,-99.99,,2013-01-08 16:43:00,
2013-01-08 11:53:00,78.0,-99.9,30.17,ESE,108,6.0,9.0,-999,-99.99,,,-99.99,,2013-01-08 16:53:00,
2013-01-08 12:04:00,78.0,-99.9,30.16,East,93,7.0,9.0,-999,-99.99,,,-99.99,,2013-01-08 17:04:00,
2013-01-08 12:13:00,79.0,-99.9,30.16,SE,130,8.0,12.0,-999,-99.99,,,-99.99,,2013-01-08 17:13:00,
2013-01-08 12:23:00,80.0,-99.9,30.16,SE,131,5.0,11.0,-999,-99.99,,,-99.99,,2013-01-08 17:23:00,
2013-01-08 12:34:00,79.0,-99.9,30.15,SE,125,9.0,14.0,-999,-99.99,,,-99.99,,2013-01-08 17:34:00,
2013-01-08 12:43:00,79.0,-99.9,30.15,ENE,76,5.0,11.0,-999,-99.99,,,-99.99,,2013-01-08 17:43:00,
2013-01-08 12:54:00,80.0,-99.9,30.14,SE,134,6.0,12.0,-999,-99.99,,,-99.99,,2013-01-08 17:54:00,
2013-01-08 13:04:00,81.0,-99.9,30.14,SE,145,7.0,13.0,-999,-99.99,,,-99.99,,2013-01-08 18:04:00,
2013-01-08 13:13:00,80.0,-99.9,30.14,East,90,4.0,12.0,-999,-99.99,,,-99.99,,2013-01-08 18:13:00,
2013-01-08 13:24:00,81.0,-99.9,30.13,SE,125,5.0,9.0,-999,-99.99,,,-99.99,,2013-01-08 18:24:00,
2013-01-08 13:33:00,81.0,-99.9,30.13,East,98,6.0,11.0,-999,-99.99,,,-99.99,,2013-01-08 18:33:00,
2013-01-08 13:43:00,82.0,-99.9,30.12,SE,124,6.0,12.0,-999,-99.99,,,-99.99,,2013-01-08 18:43:00,
2013-01-08 13:53:00,82.0,-99.9,30.12,SE,139,8.0,12.0,-999,-99.99,,,-99.99,,2013-01-08 18:53:00,
2013-01-08 14:03:00,82.0,-99.9,30.11,ESE,110,7.0,13.0,-999,-99.99,,,-99.99,,2013-01-08 19:03:00,
2013-01-08 14:12:00,82.0,-99.9,30.11,SE,130,6.0,10.0,-999,-99.99,,,-99.99,,2013-01-08 19:12:00,
2013-01-08 14:23:00,82.0,-99.9,30.11,East,88,6.0,12.0,-999,-99.99,,,-99.99,,2013-01-08 19:23:00,
2013-01-08 14:33:00,82.0,-99.9,30.11,East,84,5.0,11.0,-999,-99.99,,,-99.99,,2013-01-08 19:33:00,
2013-01-08 14:43:00,82.0,-99.9,30.10,NE,35,3.0,7.0,-999,-99.99,,,-99.99,,2013-01-08 19:43:00,
2013-01-08 14:53:00,81.0,-99.9,30.10,ENE,61,5.0,12.0,-999,-99.99,,,-99.99,,2013-01-08 19:53:00,
2013-01-08 15:03:00,82.0,-99.9,30.10,ESE,110,3.0,7.0,-999,-99.99,,,-99.99,,2013-01-08 20:03:00,
2013-01-08 15:12:00,82.0,-99.9,30.10,ENE,72,7.0,10.0,-999,-99.99,,,-99.99,,2013-01-08 20:12:00,
2013-01-08 15:23:00,82.0,-99.9,30.10,ENE,75,5.0,10.0,-999,-99.99,,,-99.99,,2013-01-08 20:23:00,
2013-01-08 15:33:00,82.0,-99.9,30.10,ENE,65,5.0,10.0,-999,-99.99,,,-99.99,,2013-01-08 20:33:00,
2013-01-08 15:43:00,82.0,-99.9,30.10,ENE,67,4.0,11.0,-999,-99.99,,,-99.99,,2013-01-08 20:43:00,
2013-01-08 15:54:00,82.0,-99.9,30.10,NE,56,6.0,9.0,-999,-99.99,,,-99.99,,2013-01-08 20:54:00,
2013-01-08 16:03:00,82.0,-99.9,30.10,ENE,65,5.0,8.0,-999,-99.99,,,-99.99,,2013-01-08 21:03:00,
2013-01-08 16:13:00,82.0,-99.9,30.10,East,89,5.0,9.0,-999,-99.99,,,-99.99,,2013-01-08 21:13:00,
2013-01-08 16:23:00,81.0,-99.9,30.10,SE,125,7.0,12.0,-999,-99.99,,,-99.99,,2013-01-08 21:23:00,
2013-01-08 16:33:00,82.0,-99.9,30.10,East,101,6.0,8.0,-999,-99.99,,,-99.99,,2013-01-08 21:33:00,
2013-01-08 16:43:00,81.0,-99.9,30.10,ENE,65,7.0,10.0,-999,-99.99,,,-99.99,,2013-01-08 21:43:00,
2013-01-08 16:53:00,80.0,-99.9,30.10,ENE,57,10.0,12.0,-999,-99.99,,,-99.99,,2013-01-08 21:53:00,
2013-01-08 17:04:00,80.0,-99.9,30.10,ENE,73,9.0,12.0,-999,-99.99,,,-99.99,,2013-01-08 22:04:00,
2013-01-08 17:13:00,80.0,-99.9,30.11,ENE,65,4.0,8.0,-999,-99.99,,,-99.99,,2013-01-08 22:13:00,
2013-01-08 17:23:00,80.0,-99.9,30.11,ENE,78,6.0,8.0,-999,-99.99,,,-99.99,,2013-01-08 22:23:00,
2013-01-08 17:33:00,80.0,-99.9,30.11,ENE,75,6.0,8.0,-999,-99.99,,,-99.99,,2013-01-08 22:33:00,
2013-01-08 17:43:00,79.0,-99.9,30.11,NE,49,6.0,9.0,-999,-99.99,,,-99.99,,2013-01-08 22:43:00,
2013-01-08 17:53:00,75.0,-99.9,30.12,SE,135,12.0,19.0,-999,-99.99,,,-99.99,,2013-01-08 22:53:00,
2013-01-08 18:03:00,76.0,-99.9,30.12,ENE,66,9.0,15.0,-999,-99.99,,,-99.99,,2013-01-08 23:03:00,
2013-01-08 18:13:00,76.0,-99.9,30.11,East,80,6.0,10.0,-999,-99.99,,,-99.99,,2013-01-08 23:13:00,
2013-01-08 18:23:00,76.0,-99.9,30.12,ENE,78,9.0,13.0,-999,-99.99,,,-99.99,,2013-01-08 23:23:00,
2013-01-08 18:33:00,76.0,-99.9,30.12,ENE,78,8.0,12.0,-999,-99.99,,,-99.99,,2013-01-08 23:33:00,
2013-01-08 18:43:00,76.0,-99.9,30.12,ENE,70,5.0,10.0,-999,-99.99,,,-99.99,,2013-01-08 23:43:00,
2013-01-08 18:53:00,76.0,-99.9,30.12,ENE,77,5.0,9.0,-999,-99.99,,,-99.99,,2013-01-08 23:53:00,
2013-01-08 19:03:00,75.0,-99.9,30.13,East,80,4.0,7.0,-999,-99.99,,,-99.99,,2013-01-09 00:03:00,
2013-01-08 19:13:00,75.0,-99.9,30.13,East,80,5.0,8.0,-999,-99.99,,,-99.99,,2013-01-09 00:13:00,
2013-01-08 19:23:00,74.0,-99.9,30.13,East,82,5.0,7.0,-999,-99.99,,,-99.99,,2013-01-09 00:23:00,
2013-01-08 19:33:00,74.0,-99.9,30.13,East,79,6.0,9.0,-999,-99.99,,,-99.99,,2013-01-09 00:33:00,
2013-01-08 19:43:00,74.0,-99.9,30.13,East,81,6.0,9.0,-999,-99.99,,,-99.99,,2013-01-09 00:43:00,
2013-01-08 19:53:00,74.0,-99.9,30.13,ENE,78,6.0,10.0,-999,-99.99,,,-99.99,,2013-01-09 00:53:00,
2013-01-08 20:03:00,74.0,-99.9,30.13,ENE,71,6.0,10.0,-999,-99.99,,,-99.99,,2013-01-09 01:03:00,
2013-01-08 20:12:00,74.0,-99.9,30.13,East,81,6.0,9.0,-999,-99.99,,,-99.99,,2013-01-09 01:12:00,
2013-01-08 20:22:00,74.0,-99.9,30.13,East,79,4.0,7.0,-999,-99.99,,,-99.99,,2013-01-09 01:22:00,
2013-01-08 20:33:00,74.0,-99.9,30.14,ENE,76,5.0,7.0,-999,-99.99,,,-99.99,,2013-01-09 01:33:00,
2013-01-08 20:43:00,74.0,-99.9,30.14,East,81,4.0,8.0,-999,-99.99,,,-99.99,,2013-01-09 01:43:00,
2013-01-08 20:53:00,73.0,-99.9,30.14,ENE,69,5.0,7.0,-999,-99.99,,,-99.99,,2013-01-09 01:53:00,
2013-01-08 21:02:00,73.0,-99.9,30.14,ENE,76,5.0,7.0,-999,-99.99,,,-99.99,,2013-01-09 02:02:00,
2013-01-08 21:12:00,73.0,-99.9,30.14,ENE,71,6.0,8.0,-999,-99.99,,,-99.99,,2013-01-09 02:12:00,
2013-01-08 21:23:00,73.0,-99.9,30.14,ENE,74,4.0,8.0,-999,-99.99,,,-99.99,,2013-01-09 02:23:00,
2013-01-08 21:33:00,73.0,-99.9,30.14,ENE,69,5.0,7.0,-999,-99.99,,,-99.99,,2013-01-09 02:33:00,
2013-01-08 21:43:00,73.0,-99.9,30.15,ENE,78,4.0,6.0,-999,-99.99,,,-99.99,,2013-01-09 02:43:00,
2013-01-08 21:53:00,73.0,-99.9,30.14,East,97,3.0,7.0,-999,-99.99,,,-99.99,,2013-01-09 02:53:00,
2013-01-08 22:03:00,73.0,-99.9,30.14,East,101,3.0,8.0,-999,-99.99,,,-99.99,,2013-01-09 03:03:00,
2013-01-08 22:12:00,74.0,-99.9,30.14,ESE,119,6.0,9.0,-999,-99.99,,,-99.99,,2013-01-09 03:12:00,
2013-01-08 22:22:00,74.0,-99.9,30.14,ESE,111,5.0,9.0,-999,-99.99,,,-99.99,,2013-01-09 03:22:00,
2013-01-08 22:33:00,74.0,-99.9,30.15,East,98,4.0,12.0,-999,-99.99,,,-99.99,,2013-01-09 03:33:00,
2013-01-08 22:43:00,74.0,-99.9,30.15,East,97,4.0,7.0,-999,-99.99,,,-99.99,,2013-01-09 03:43:00,
2013-01-08 22:53:00,73.0,-99.9,30.16,ESE,106,3.0,6.0,-999,-99.99,,,-99.99,,2013-01-09 03:53:00,
2013-01-08 23:02:00,73.0,-99.9,30.16,ESE,119,6.0,10.0,-999,-99.99,,,-99.99,,2013-01-09 04:02:00,
2013-01-08 23:12:00,73.0,-99.9,30.16,East,79,4.0,7.0,-999,-99.99,,,-99.99,,2013-01-09 04:12:00,
2013-01-08 23:23:00,73.0,-99.9,30.16,East,91,3.0,6.0,-999,-99.99,,,-99.99,,2013-01-09 04:23:00,
2013-01-08 23:33:00,73.0,-99.9,30.16,East,92,4.0,8.0,-999,-99.99,,,-99.99,,2013-01-09 04:33:00,
2013-01-08 23:43:00,73.0,-99.9,30.16,East,80,6.0,9.0,-999,-99.99,,,-99.99,,2013-01-09 04:43:00,
2013-01-08 23:53:00,73.0,-99.9,30.16,ENE,73,5.0,8.0,-999,-99.99,,,-99.99,,2013-01-09 04:53:00,